"startDT [UTC]","vpos","CH4 [ppm]","stdev(CH4) [ppm]","CO2 [ppm]","stdev(CO2) [ppm]","H2O_reported [%]","stdev(H2O_reported)","CavityPressure [torr]","CavityTemp [C]","OutletValve","CH4_dry [ppm]","CO2_dry [ppm]","DasTemp [C]","EtalonTemp [C]","WarmBoxTemp [C]","MPVPosition","T_ECpre [C]","T_EC1 [C]","T_EC2 [C]","p_inlet [hPa]","p_in [hPa]","p_out [hPa]","T_inlet [C]","RH_inlet [%]","dwpt_inlet [C]","T_vent [C]","RH_vent [%]","dwpt_vent [C]","flow_vent [l min-1]","flow_inlet [l min-1]","dwpt_sample [C]","T_room [C]"
2015-09-29 00:00:00,0.0,1.92825,0.00052,391.723,0.037,0.6589,0.0026,139.999,44.999,31664.97307,1.94096,394.895,35.020,45.067,44.998,0.00,0.10,-272.74,-272.80,-8,523,-932,21.6,19.6,-2.5,21.8,19.9,-2.2,5.73,1.79,-0.6,27.1
2015-09-29 00:01:00,0.0,1.92884,0.00038,391.712,0.030,0.6557,0.0025,140.001,44.999,31661.55854,1.94153,394.863,34.921,45.066,44.998,0.00,0.10,-272.75,-272.80,-8,523,-932,21.7,19.5,-2.6,21.8,19.8,-2.3,5.73,1.80,-0.6,27.1
2015-09-29 00:02:00,0.0,1.92846,0.00038,391.727,0.028,0.6566,0.0016,140.001,44.998,31658.60024,1.94120,394.884,34.829,45.066,44.998,0.00,0.10,-272.74,-272.79,-8,523,-931,21.7,19.5,-2.6,21.8,19.8,-2.3,5.73,1.98,-0.6,27.1
2015-09-29 00:03:00,0.0,1.92812,0.00041,391.767,0.030,0.6610,0.0024,139.998,44.998,31653.80223,1.94092,394.943,34.736,45.067,44.999,0.00,0.09,-272.73,-272.80,-9,523,-932,21.8,19.6,-2.5,21.8,19.8,-2.3,5.73,2.05,-0.6,27.1
2015-09-29 00:04:00,0.0,1.92835,0.00048,391.742,0.042,0.6642,0.0021,140.000,44.998,31649.15374,1.94122,394.936,34.663,45.067,44.999,0.00,0.09,-272.74,-272.81,-9,523,-932,21.7,19.7,-2.5,21.8,20.0,-2.2,5.73,1.90,-0.6,27.1
2015-09-29 00:05:00,0.0,1.92833,0.00030,391.770,0.029,0.6645,0.0020,139.999,44.998,31644.55858,1.94118,394.965,34.599,45.067,44.999,0.00,0.10,-272.74,-272.80,-9,523,-931,21.7,19.7,-2.4,21.8,20.0,-2.2,5.73,1.75,-0.6,27.1
2015-09-29 00:06:00,0.0,1.92816,0.00036,391.808,0.044,0.6656,0.0022,140.002,44.999,31642.34605,1.94107,395.011,34.567,45.068,45.000,0.00,0.10,-272.73,-272.79,-9,523,-931,21.7,19.7,-2.4,21.8,20.0,-2.2,5.73,1.91,-0.6,27.1
2015-09-29 00:07:00,0.0,1.92843,0.00042,391.804,0.039,0.6654,0.0019,140.002,44.999,31639.81600,1.94130,395.004,34.567,45.068,45.000,0.00,0.10,-272.75,-272.80,-8,523,-931,21.7,19.7,-2.4,21.7,20.0,-2.2,5.73,2.09,-0.6,27.0
2015-09-29 00:08:00,0.0,1.92831,0.00032,391.868,0.049,0.6646,0.0018,140.000,45.000,31639.56273,1.94120,395.062,34.603,45.069,45.001,0.00,0.10,-272.74,-272.81,-9,522,-932,21.7,19.8,-2.4,21.7,20.0,-2.2,5.73,1.79,-0.6,27.0
2015-09-29 00:09:00,0.0,1.92809,0.00033,391.852,0.063,0.6674,0.0024,139.997,45.000,31640.70063,1.94101,395.064,34.655,45.069,45.001,0.00,0.10,-272.74,-272.79,-9,522,-932,21.7,19.8,-2.4,21.7,20.0,-2.2,5.73,1.87,-0.6,27.0
2015-09-29 00:10:00,0.0,1.92765,0.00061,391.767,0.159,0.6681,0.0013,140.001,45.001,31646.00932,1.94066,394.987,34.757,45.070,45.002,0.00,0.10,-272.73,-272.80,-8,522,-932,21.7,19.8,-2.4,21.7,20.1,-2.1,5.73,2.07,-0.6,27.1
2015-09-29 00:11:00,0.0,1.92675,0.00042,391.307,0.079,0.6615,0.0035,140.002,45.002,31651.43485,1.93956,394.488,34.885,45.070,45.002,0.00,0.10,-272.74,-272.80,-9,522,-932,21.6,19.6,-2.6,21.8,20.0,-2.2,5.73,1.72,-0.6,27.1
2015-09-29 00:12:00,0.0,1.92686,0.00036,391.321,0.083,0.6559,0.0018,140.000,45.002,31655.29417,1.93953,394.469,35.021,45.070,45.002,0.00,0.10,-272.74,-272.80,-9,522,-932,21.7,19.4,-2.7,21.8,19.8,-2.3,5.73,2.12,-0.6,27.2
2015-09-29 00:13:00,0.0,1.92700,0.00054,391.387,0.115,0.6567,0.0018,139.999,45.002,31662.51781,1.93975,394.546,35.134,45.070,45.001,0.00,0.10,-272.74,-272.79,-8,522,-933,21.7,19.4,-2.6,21.8,19.7,-2.4,5.73,1.78,-0.6,27.2
2015-09-29 00:14:00,0.0,1.92622,0.00040,391.296,0.094,0.6557,0.0016,140.000,45.002,31665.46442,1.93890,394.443,35.216,45.069,45.001,0.00,0.10,-272.75,-272.80,-8,522,-934,21.7,19.4,-2.6,21.8,19.7,-2.4,5.73,1.91,-0.6,27.3
2015-09-29 00:15:00,0.0,1.92543,0.00046,391.208,0.034,0.6570,0.0020,139.998,45.002,31667.56411,1.93815,394.364,35.249,45.069,45.000,0.00,0.09,-272.74,-272.81,-11,522,-934,21.7,19.5,-2.6,21.8,19.7,-2.3,5.73,2.08,-0.6,27.2
2015-09-29 00:16:00,0.0,1.92621,0.00042,391.162,0.037,0.6572,0.0019,139.997,45.001,31667.72800,1.93891,394.319,35.214,45.068,44.999,0.00,0.10,-272.72,-272.80,-7,522,-933,21.7,19.5,-2.6,21.8,19.7,-2.3,5.73,1.79,-0.6,27.2
2015-09-29 00:17:00,0.0,1.92629,0.00053,391.182,0.070,0.6568,0.0022,140.000,45.000,31667.57039,1.93895,394.336,35.134,45.067,44.998,0.00,0.10,-272.74,-272.80,-8,523,-933,21.7,19.5,-2.6,21.8,19.8,-2.3,5.73,1.81,-0.6,27.1
2015-09-29 00:18:00,0.0,1.92636,0.00035,391.251,0.138,0.6551,0.0016,139.998,44.999,31665.27718,1.93905,394.394,35.043,45.067,44.998,0.00,0.09,-272.74,-272.80,-8,523,-933,21.7,19.4,-2.6,21.8,19.7,-2.4,5.73,2.00,-0.5,27.2
2015-09-29 00:19:00,0.0,1.92656,0.00036,391.286,0.061,0.6555,0.0019,139.997,44.998,31662.95054,1.93925,394.435,34.934,45.066,44.998,0.00,0.10,-272.74,-272.80,-9,523,-932,21.8,19.4,-2.6,21.8,19.7,-2.4,5.73,2.05,-0.5,27.2
2015-09-29 00:20:00,0.0,1.92645,0.00042,391.249,0.030,0.6566,0.0024,139.999,44.998,31660.23911,1.93916,394.402,34.828,45.066,44.998,0.00,0.10,-272.73,-272.80,-9,523,-932,21.8,19.4,-2.6,21.8,19.7,-2.4,5.73,1.91,-0.6,27.1
2015-09-29 00:21:00,0.0,1.92638,0.00034,391.219,0.037,0.6562,0.0015,139.997,44.998,31654.08763,1.93909,394.370,34.747,45.067,44.999,0.00,0.10,-272.74,-272.80,-9,523,-932,21.8,19.4,-2.6,21.8,19.7,-2.4,5.73,1.78,-0.6,27.1
2015-09-29 00:22:00,0.0,1.92641,0.00046,391.198,0.037,0.6576,0.0016,140.002,44.998,31650.21607,1.93913,394.356,34.680,45.067,44.999,0.00,0.10,-272.74,-272.80,-9,523,-932,21.7,19.4,-2.6,21.8,19.7,-2.4,5.73,1.83,-0.5,27.1
2015-09-29 00:23:00,0.0,1.92665,0.00038,391.218,0.043,0.6563,0.0019,140.001,44.998,31645.53101,1.93935,394.368,34.628,45.068,45.000,0.00,0.10,-272.74,-272.80,-8,523,-932,21.7,19.4,-2.7,21.8,19.7,-2.4,5.73,2.03,-0.5,27.1
2015-09-29 00:24:00,0.0,1.92639,0.00052,391.371,0.173,0.6579,0.0022,140.000,44.999,31643.25105,1.93913,394.533,34.625,45.068,45.000,0.00,0.10,-272.74,-272.80,-9,523,-932,21.7,19.5,-2.6,21.8,19.8,-2.3,5.73,2.02,-0.6,27.0
2015-09-29 00:25:00,0.0,1.92645,0.00039,391.141,0.042,0.6560,0.0025,140.000,45.000,31642.51709,1.93911,394.291,34.629,45.069,45.001,0.00,0.10,-272.73,-272.80,-9,522,-932,21.6,19.4,-2.7,21.8,19.7,-2.4,5.73,1.73,-0.5,27.0
2015-09-29 00:26:00,0.0,1.92582,0.00057,391.142,0.042,0.6543,0.0014,140.001,45.000,31646.08173,1.93849,394.281,34.702,45.069,45.002,0.00,0.10,-272.74,-272.79,-9,521,-932,21.7,19.4,-2.7,21.8,19.7,-2.4,5.73,1.98,-0.5,27.1
2015-09-29 00:27:00,0.0,1.92640,0.00040,391.144,0.051,0.6544,0.0012,139.998,45.001,31649.78491,1.93905,394.289,34.793,45.070,45.002,0.00,0.10,-272.74,-272.80,-7,524,-932,21.7,19.3,-2.7,21.8,19.6,-2.4,5.73,2.02,-0.5,27.1
2015-09-29 00:28:00,0.0,1.92623,0.00037,391.080,0.037,0.6510,0.0017,139.998,45.002,31652.25046,1.93882,394.202,34.898,45.070,45.002,0.00,0.10,-272.74,-272.80,-9,522,-932,21.7,19.2,-2.7,21.8,19.6,-2.5,5.73,1.72,-0.5,27.2
2015-09-29 00:29:00,0.0,1.92513,0.00072,391.071,0.048,0.6528,0.0023,139.999,45.002,31658.91653,1.93774,394.206,34.980,45.070,45.002,0.00,0.10,-272.74,-272.79,-9,523,-933,21.7,19.3,-2.7,21.8,19.5,-2.5,5.73,2.09,-0.5,27.3
2015-09-29 00:30:00,0.0,1.92527,0.00076,391.037,0.041,0.6512,0.0018,140.000,45.002,31662.67412,1.93792,394.162,35.047,45.069,45.001,0.00,0.10,-272.73,-272.80,-8,523,-932,21.7,19.2,-2.8,21.8,19.5,-2.5,5.73,1.88,-0.5,27.3
2015-09-29 00:31:00,0.0,1.92560,0.00088,391.280,0.210,0.6527,0.0031,140.000,45.002,31664.47248,1.93823,394.412,35.086,45.069,45.000,0.00,0.10,-272.74,-272.80,-8,523,-933,21.7,19.3,-2.8,21.8,19.5,-2.5,5.73,1.77,-0.5,27.2
2015-09-29 00:32:00,0.0,1.92665,0.00062,391.582,0.306,0.6561,0.0033,139.999,45.001,31664.29177,1.93928,394.724,35.060,45.068,45.000,0.00,0.09,-272.74,-272.80,-10,523,-932,21.7,19.4,-2.7,21.8,19.6,-2.4,5.73,2.05,-0.5,27.2
2015-09-29 00:33:00,0.0,1.92682,0.00094,391.817,0.398,0.6613,0.0024,139.999,45.000,31664.39799,1.93962,394.996,34.971,45.067,44.999,0.00,0.10,-272.73,-272.80,-9,523,-932,21.7,19.6,-2.5,21.8,19.8,-2.3,5.73,2.01,-0.5,27.2
2015-09-29 00:34:00,0.0,1.92628,0.00062,391.448,0.321,0.6617,0.0035,140.000,44.999,31663.77813,1.93904,394.626,34.898,45.067,44.998,0.00,0.10,-272.74,-272.80,-9,523,-932,21.8,19.5,-2.5,21.9,19.8,-2.2,5.73,1.82,-0.5,27.2
2015-09-29 00:35:00,0.0,1.92822,0.00076,392.644,0.232,0.6672,0.0050,139.999,44.999,31659.94932,1.94113,395.847,34.817,45.066,44.998,0.00,0.10,-272.74,-272.80,-8,523,-932,21.8,19.7,-2.4,21.9,19.9,-2.2,5.73,1.78,-0.5,27.2
2015-09-29 00:36:00,0.0,1.92816,0.00039,392.501,0.167,0.6748,0.0020,140.001,44.998,31655.28091,1.94122,395.759,34.747,45.066,44.998,0.00,0.10,-272.74,-272.79,-8,523,-932,21.8,19.9,-2.2,21.9,20.1,-2.0,5.73,1.91,-0.5,27.2
2015-09-29 00:37:00,0.0,1.92815,0.00038,392.482,0.089,0.6784,0.0020,139.998,44.998,31650.43348,1.94129,395.746,34.661,45.066,44.998,0.00,0.10,-272.74,-272.80,-9,523,-932,21.8,20.0,-2.1,21.9,20.3,-1.9,5.73,2.05,-0.5,27.1
2015-09-29 00:38:00,0.0,1.92854,0.00070,392.593,0.328,0.6812,0.0023,139.997,44.998,31645.18619,1.94177,395.895,34.610,45.067,44.999,0.00,0.10,-272.74,-272.80,-9,523,-932,21.8,20.1,-2.1,21.9,20.4,-1.9,5.73,1.98,-0.5,27.2
2015-09-29 00:39:00,0.0,1.92815,0.00040,392.431,0.193,0.6786,0.0014,139.998,44.998,31644.36766,1.94126,395.688,34.568,45.067,44.999,0.00,0.10,-272.73,-272.80,-10,523,-932,21.7,20.1,-2.2,21.8,20.3,-1.9,5.73,1.76,-0.5,27.1
2015-09-29 00:40:00,0.0,1.92850,0.00032,392.512,0.140,0.6816,0.0016,140.001,44.999,31642.63204,1.94172,395.799,34.573,45.068,45.000,0.00,0.10,-272.74,-272.79,-9,523,-932,21.7,20.1,-2.1,21.8,20.4,-1.9,5.73,1.86,-0.5,27.1
2015-09-29 00:41:00,0.0,1.92818,0.00056,392.518,0.203,0.6820,0.0024,139.999,45.000,31643.65835,1.94140,395.807,34.629,45.069,45.001,0.00,0.09,-272.75,-272.80,-8,523,-932,21.7,20.2,-2.1,21.8,20.4,-1.9,5.73,2.10,-0.5,27.1
2015-09-29 00:42:00,0.0,1.92819,0.00039,392.567,0.106,0.6822,0.0020,139.997,45.001,31646.95984,1.94141,395.859,34.683,45.069,45.001,0.00,0.10,-272.74,-272.80,-9,523,-932,21.7,20.2,-2.1,21.8,20.4,-1.9,5.73,1.81,-0.5,27.2
2015-09-29 00:43:00,0.0,1.92816,0.00043,392.343,0.190,0.6812,0.0022,140.000,45.001,31651.86115,1.94136,395.629,34.739,45.069,45.001,0.00,0.10,-272.73,-272.79,-9,522,-932,21.7,20.2,-2.2,21.8,20.4,-1.9,5.73,1.83,-0.5,27.2
2015-09-29 00:44:00,0.0,1.92923,0.00052,393.067,0.313,0.6819,0.0036,140.000,45.001,31654.52104,1.94242,396.345,34.797,45.069,45.001,0.00,0.10,-272.74,-272.80,-8,522,-932,21.6,20.3,-2.2,21.8,20.4,-1.9,5.73,2.10,-0.5,27.1
2015-09-29 00:45:00,0.0,1.92873,0.00051,392.747,0.172,0.6873,0.0021,140.002,45.001,31656.15186,1.94206,396.067,34.813,45.069,45.001,0.00,0.09,-272.74,-272.81,-9,521,-932,21.6,20.4,-2.1,21.7,20.6,-1.8,5.73,1.87,-0.5,27.1
2015-09-29 00:46:00,0.0,1.92848,0.00082,392.651,0.328,0.6855,0.0024,139.999,45.000,31653.13575,1.94181,395.964,34.794,45.068,45.000,0.00,0.10,-272.73,-272.80,-13,525,-931,21.6,20.4,-2.1,21.8,20.6,-1.8,5.73,1.76,-0.5,27.1
2015-09-29 00:47:00,0.0,1.92895,0.00047,392.738,0.180,0.6838,0.0020,140.001,45.000,31652.85256,1.94217,396.027,34.721,45.068,44.999,0.00,0.10,-272.74,-272.79,-8,526,-932,21.7,20.3,-2.1,21.8,20.6,-1.8,5.73,1.95,-0.5,27.0
2015-09-29 00:48:00,0.0,1.92949,0.00040,393.151,0.159,0.6894,0.0022,140.001,44.999,31650.33435,1.94285,396.478,34.643,45.067,44.999,0.00,0.09,-272.75,-272.80,-5,521,-934,21.7,20.4,-2.0,21.8,20.7,-1.7,5.73,2.06,-0.5,27.1
2015-09-29 00:49:00,0.0,1.92913,0.00030,393.068,0.094,0.6919,0.0019,139.997,44.999,31647.96890,1.94255,396.414,34.583,45.067,44.999,0.00,0.10,-272.74,-272.80,-9,521,-936,21.7,20.5,-1.9,21.8,20.8,-1.7,5.73,1.94,-0.5,27.0
2015-09-29 00:50:00,0.0,1.92907,0.00054,393.000,0.157,0.6911,0.0021,139.998,44.999,31644.30119,1.94248,396.337,34.529,45.067,44.999,0.00,0.10,-272.73,-272.80,-7,523,-931,21.7,20.5,-1.9,21.8,20.8,-1.6,5.73,1.77,-0.5,27.0
2015-09-29 00:51:00,0.0,1.92889,0.00038,393.011,0.123,0.6930,0.0016,139.998,44.999,31641.78141,1.94234,396.357,34.502,45.067,44.999,0.00,0.10,-272.74,-272.80,-8,523,-932,21.7,20.6,-1.9,21.8,20.8,-1.6,5.73,1.84,-0.5,27.1
2015-09-29 00:52:00,0.0,1.92951,0.00035,393.385,0.066,0.6942,0.0022,140.001,44.999,31640.29080,1.94295,396.738,34.500,45.067,45.000,0.00,0.09,-272.75,-272.80,-9,523,-931,21.6,20.7,-1.9,21.8,20.8,-1.6,5.73,2.08,-0.5,27.0
2015-09-29 00:53:00,0.0,1.92938,0.00036,393.508,0.147,0.6973,0.0020,139.999,45.000,31639.24320,1.94295,396.877,34.512,45.068,45.000,0.00,0.10,-272.73,-272.80,-9,523,-932,21.6,20.8,-1.8,21.8,20.9,-1.6,5.73,1.94,-0.5,27.0
2015-09-29 00:54:00,0.0,1.92942,0.00041,393.512,0.062,0.7009,0.0024,139.998,45.000,31641.11866,1.94298,396.902,34.569,45.069,45.001,0.00,0.10,-272.74,-272.80,-9,523,-932,21.5,20.9,-1.8,21.8,21.0,-1.5,5.73,1.74,-0.5,27.0
2015-09-29 00:55:00,0.0,1.92957,0.00037,393.578,0.039,0.7018,0.0022,140.002,45.001,31644.40995,1.94321,396.971,34.636,45.069,45.001,0.00,0.09,-272.75,-272.80,-8,522,-932,21.6,20.9,-1.7,21.8,21.1,-1.5,5.73,2.08,-0.5,26.9
2015-09-29 00:56:00,0.0,1.92936,0.00028,393.583,0.126,0.7017,0.0016,140.000,45.001,31649.23377,1.94299,396.977,34.713,45.069,45.001,0.00,0.10,-272.74,-272.80,-9,522,-932,21.6,20.9,-1.7,21.8,21.1,-1.4,5.73,1.90,-0.5,27.0
2015-09-29 00:57:00,0.0,1.92937,0.00024,393.585,0.069,0.7053,0.0017,140.000,45.001,31652.91608,1.94307,397.000,34.789,45.070,45.001,0.00,0.10,-272.73,-272.80,-9,523,-932,21.6,21.0,-1.7,21.8,21.1,-1.4,5.73,1.77,-0.5,27.1
2015-09-29 00:58:00,0.0,1.92965,0.00053,393.527,0.248,0.7057,0.0016,139.999,45.001,31657.52031,1.94335,396.953,34.839,45.069,45.001,0.00,0.09,-272.74,-272.80,-8,522,-932,21.6,21.0,-1.7,21.7,21.2,-1.4,5.73,2.10,-0.5,27.1
2015-09-29 00:59:00,0.0,1.93030,0.00060,393.427,0.219,0.7021,0.0019,139.999,45.001,31657.19217,1.94391,396.814,34.839,45.069,45.001,0.00,0.10,-272.74,-272.81,-8,522,-932,21.6,21.0,-1.7,21.7,21.2,-1.4,5.73,1.90,-0.5,27.0
2015-09-29 01:00:00,0.0,1.93107,0.00054,393.523,0.223,0.6981,0.0023,140.001,45.001,31658.50181,1.94458,396.894,34.816,45.068,45.000,0.00,0.10,-272.73,-272.80,-9,523,-932,21.5,20.9,-1.8,21.7,21.1,-1.5,5.73,1.75,-0.5,27.0
2015-09-29 01:01:00,0.0,1.93133,0.00033,393.536,0.087,0.6993,0.0024,139.999,45.000,31657.69853,1.94491,396.922,34.756,45.068,44.999,0.00,0.10,-272.74,-272.80,-9,523,-932,21.6,20.8,-1.8,21.7,21.1,-1.5,5.73,1.93,-0.5,27.1
2015-09-29 01:02:00,0.0,1.93133,0.00030,393.714,0.119,0.6996,0.0023,140.001,44.999,31654.18549,1.94494,397.098,34.686,45.067,44.999,0.00,0.09,-272.74,-272.80,-9,523,-932,21.6,20.8,-1.7,21.7,21.1,-1.5,5.73,2.06,-0.5,27.0
2015-09-29 01:03:00,0.0,1.93056,0.00044,393.408,0.221,0.6987,0.0035,139.997,44.999,31651.00407,1.94415,396.792,34.622,45.067,44.999,0.00,0.10,-272.74,-272.80,-8,523,-931,21.7,20.8,-1.8,21.8,21.1,-1.5,5.73,1.96,-0.5,26.9
2015-09-29 01:04:00,0.0,1.92981,0.00068,392.941,0.172,0.6881,0.0026,140.000,44.998,31648.67569,1.94315,396.269,34.562,45.067,44.999,0.00,0.10,-272.74,-272.80,-8,523,-931,21.7,20.4,-2.0,21.8,20.8,-1.6,5.73,1.79,-0.5,27.0
2015-09-29 01:05:00,0.0,1.93052,0.00045,393.153,0.187,0.6863,0.0021,140.000,44.998,31644.58468,1.94383,396.465,34.503,45.067,44.999,0.00,0.10,-272.74,-272.80,-8,523,-931,21.7,20.4,-2.0,21.8,20.7,-1.7,5.73,1.80,-0.5,27.0
2015-09-29 01:06:00,0.0,1.93064,0.00034,393.439,0.067,0.6901,0.0027,140.002,44.999,31641.24432,1.94403,396.772,34.481,45.067,44.999,0.00,0.10,-272.74,-272.80,-9,523,-931,21.7,20.5,-1.9,21.8,20.7,-1.7,5.73,2.03,-0.5,27.0
2015-09-29 01:07:00,0.0,1.93080,0.00051,393.674,0.178,0.6951,0.0026,139.999,44.999,31637.50631,1.94429,397.029,34.493,45.068,45.000,0.00,0.09,-272.74,-272.80,-9,523,-931,21.6,20.7,-1.9,21.7,20.9,-1.6,5.73,2.03,-0.5,26.9
2015-09-29 01:08:00,0.0,1.93122,0.00036,393.992,0.059,0.7022,0.0025,140.000,45.000,31638.25370,1.94484,397.389,34.530,45.068,45.000,0.00,0.10,-272.74,-272.80,-8,523,-931,21.6,20.9,-1.7,21.7,21.0,-1.5,5.73,1.74,-0.5,26.9
2015-09-29 01:09:00,0.0,1.93139,0.00031,394.143,0.048,0.7060,0.0024,140.001,45.001,31640.14241,1.94510,397.562,34.589,45.069,45.001,0.00,0.10,-272.74,-272.80,-8,522,-932,21.6,21.0,-1.6,21.7,21.2,-1.4,5.73,1.94,-0.5,27.0
2015-09-29 01:10:00,0.0,1.93119,0.00052,394.071,0.205,0.7095,0.0017,139.997,45.001,31642.40249,1.94503,397.528,34.655,45.069,45.001,0.00,0.10,-272.74,-272.80,-9,522,-932,21.6,21.1,-1.6,21.8,21.3,-1.3,5.73,2.06,-0.5,27.0
2015-09-29 01:11:00,0.0,1.92998,0.00039,392.869,0.138,0.6922,0.0080,139.999,45.001,31645.85674,1.94340,396.215,34.726,45.069,45.001,0.00,0.10,-272.73,-272.80,-9,523,-932,21.6,20.6,-1.9,21.8,21.0,-1.5,5.73,1.72,-0.5,27.1
2015-09-29 01:12:00,0.0,1.93027,0.00063,393.142,0.392,0.6828,0.0024,140.001,45.002,31651.28588,1.94351,396.424,34.771,45.069,45.001,0.00,0.09,-272.74,-272.81,-8,523,-932,21.6,20.4,-2.1,21.8,20.6,-1.8,5.73,1.98,-0.5,27.0
2015-09-29 01:13:00,0.0,1.93012,0.00063,393.175,0.308,0.6892,0.0023,140.002,45.001,31655.90353,1.94349,396.510,34.767,45.069,45.001,0.00,0.10,-272.73,-272.80,-8,522,-932,21.6,20.5,-2.0,21.7,20.7,-1.7,5.73,2.05,-0.5,27.0
2015-09-29 01:14:00,0.0,1.93101,0.00031,393.548,0.098,0.6912,0.0022,139.999,45.001,31654.08167,1.94441,396.887,34.746,45.068,45.000,0.00,0.10,-272.73,-272.80,-9,523,-932,21.6,20.6,-1.9,21.7,20.8,-1.7,5.73,1.80,-0.5,27.0
2015-09-29 01:15:00,0.0,1.93096,0.00049,393.570,0.157,0.6940,0.0022,139.999,45.000,31651.53546,1.94444,396.927,34.693,45.068,44.999,0.00,0.10,-272.74,-272.80,-9,523,-932,21.6,20.7,-1.9,21.7,20.9,-1.6,5.73,1.79,-0.5,27.0
2015-09-29 01:16:00,0.0,1.93071,0.00048,393.562,0.261,0.6920,0.0022,139.998,44.999,31647.80151,1.94413,396.902,34.645,45.067,44.999,0.00,0.10,-272.74,-272.80,-9,523,-932,21.6,20.6,-1.9,21.7,20.8,-1.7,5.73,1.99,-0.5,27.0
2015-09-29 01:17:00,0.0,1.93082,0.00039,394.001,0.090,0.6984,0.0017,139.999,44.999,31644.61634,1.94438,397.383,34.576,45.067,44.998,0.00,0.10,-272.74,-272.80,-8,523,-931,21.6,20.8,-1.8,21.7,21.0,-1.6,5.73,2.06,-0.5,27.0
2015-09-29 01:18:00,0.0,1.93089,0.00049,394.015,0.153,0.7018,0.0021,139.999,44.998,31640.26693,1.94450,397.413,34.520,45.067,44.999,0.00,0.10,-272.74,-272.81,-8,523,-931,21.6,20.9,-1.7,21.7,21.1,-1.5,5.73,1.88,-0.5,27.0
2015-09-29 01:19:00,0.0,1.93118,0.00040,394.301,0.135,0.7044,0.0026,140.001,44.999,31637.09200,1.94487,397.709,34.466,45.067,44.999,0.00,0.10,-272.74,-272.80,-9,523,-931,21.6,21.0,-1.7,21.7,21.2,-1.4,5.73,1.75,-0.5,27.0
2015-09-29 01:20:00,0.0,1.93081,0.00077,394.378,0.409,0.7084,0.0026,140.000,44.999,31635.18150,1.94459,397.817,34.451,45.068,45.000,0.00,0.10,-272.74,-272.80,-9,523,-931,21.6,21.2,-1.6,21.7,21.3,-1.4,5.73,1.95,-0.5,27.0
2015-09-29 01:21:00,0.0,1.93161,0.00037,394.747,0.207,0.7088,0.0036,139.999,45.000,31634.13896,1.94534,398.174,34.478,45.068,45.001,0.00,0.09,-272.74,-272.80,-9,523,-931,21.5,21.2,-1.6,21.7,21.4,-1.4,5.73,2.08,-0.5,27.0
2015-09-29 01:22:00,0.0,1.93156,0.00039,394.936,0.196,0.7168,0.0023,140.001,45.000,31635.62258,1.94550,398.418,34.507,45.069,45.001,0.00,0.09,-272.74,-272.80,-8,523,-932,21.5,21.5,-1.4,21.7,21.6,-1.2,5.73,1.76,-0.5,27.0
2015-09-29 01:23:00,0.0,1.93157,0.00029,395.012,0.082,0.7189,0.0029,140.002,45.001,31639.97266,1.94556,398.500,34.595,45.069,45.002,0.00,0.10,-272.74,-272.79,-9,522,-932,21.5,21.5,-1.4,21.7,21.7,-1.2,5.73,1.91,-0.5,27.0
2015-09-29 01:24:00,0.0,1.93121,0.00040,395.082,0.113,0.7233,0.0024,140.001,45.001,31644.32525,1.94526,398.601,34.673,45.070,45.001,0.00,0.10,-272.74,-272.80,-9,523,-932,21.5,21.6,-1.3,21.7,21.8,-1.1,5.73,2.07,-0.5,27.0
2015-09-29 01:25:00,0.0,1.93139,0.00032,394.896,0.067,0.7196,0.0017,140.001,45.001,31645.90695,1.94540,398.391,34.747,45.069,45.001,0.00,0.10,-272.74,-272.80,-8,523,-932,21.6,21.5,-1.4,21.7,21.7,-1.1,5.73,1.72,-0.5,27.1
2015-09-29 01:26:00,0.0,1.93131,0.00048,394.927,0.100,0.7198,0.0020,139.999,45.001,31649.70199,1.94530,398.422,34.807,45.069,45.001,0.00,0.10,-272.74,-272.80,-8,522,-932,21.5,21.6,-1.4,21.7,21.7,-1.1,5.73,1.99,-0.5,27.1
2015-09-29 01:27:00,0.0,1.93019,0.00066,394.043,0.566,0.7069,0.0114,139.998,45.001,31654.06740,1.94393,397.476,34.816,45.069,45.000,0.00,0.10,-272.73,-272.80,-9,523,-932,21.5,21.1,-1.6,21.7,21.5,-1.2,5.73,2.04,-0.5,27.1
2015-09-29 01:28:00,0.0,1.92919,0.00076,393.052,0.549,0.6839,0.0091,139.997,45.001,31654.85869,1.94252,396.381,34.792,45.068,45.000,0.00,0.10,-272.74,-272.80,-9,523,-932,21.6,20.4,-2.1,21.7,20.9,-1.6,5.73,1.77,-0.5,27.0
2015-09-29 01:29:00,0.0,1.92955,0.00062,393.576,0.337,0.6848,0.0057,140.000,45.000,31653.53978,1.94278,396.869,34.727,45.068,44.999,0.00,0.10,-272.74,-272.80,-8,523,-932,21.6,20.4,-2.1,21.7,20.6,-1.8,5.73,1.83,-0.5,27.1
2015-09-29 01:30:00,0.0,1.93055,0.00039,394.847,0.165,0.7062,0.0049,139.998,44.999,31650.54254,1.94428,398.263,34.643,45.067,44.999,0.00,0.10,-272.74,-272.80,-8,523,-932,21.6,21.1,-1.6,21.7,21.1,-1.5,5.73,2.03,-0.5,27.0
2015-09-29 01:31:00,0.0,1.92965,0.00063,393.964,0.440,0.7071,0.0034,139.999,44.999,31647.55043,1.94341,397.412,34.583,45.067,44.999,0.00,0.10,-272.74,-272.81,-8,523,-931,21.6,21.1,-1.6,21.7,21.3,-1.3,5.73,2.03,-0.5,27.0
2015-09-29 01:32:00,0.0,1.92940,0.00037,393.751,0.274,0.6974,0.0029,140.000,44.999,31644.06489,1.94291,397.116,34.525,45.067,44.999,0.00,0.09,-272.74,-272.80,-9,523,-932,21.6,20.8,-1.8,21.7,21.1,-1.5,5.73,1.82,-0.5,27.0
2015-09-29 01:33:00,0.0,1.92946,0.00040,393.963,0.116,0.7006,0.0030,139.999,44.999,31641.66272,1.94306,397.353,34.490,45.067,44.999,0.00,0.10,-272.74,-272.80,-9,523,-931,21.6,20.9,-1.7,21.7,21.1,-1.5,5.73,1.77,-0.5,27.0
2015-09-29 01:34:00,0.0,1.92811,0.00120,392.686,1.068,0.6849,0.0151,139.999,44.999,31639.34388,1.94153,396.044,34.449,45.068,45.000,0.00,0.10,-272.74,-272.80,-9,523,-931,21.6,20.4,-2.1,21.7,21.0,-1.6,5.73,2.00,-0.5,27.0
2015-09-29 01:35:00,0.0,1.92665,0.00044,391.606,0.331,0.6531,0.0029,139.999,44.999,31639.68667,1.93924,394.723,34.493,45.068,45.000,0.00,0.09,-272.74,-272.80,-8,523,-932,21.5,19.5,-2.7,21.7,20.0,-2.3,5.73,2.04,-0.5,27.0
2015-09-29 01:36:00,0.0,1.92828,0.00050,392.767,0.390,0.6674,0.0049,139.999,45.000,31640.02734,1.94120,395.981,34.519,45.069,45.001,0.00,0.10,-272.74,-272.80,-8,522,-931,21.5,19.9,-2.4,21.7,20.0,-2.3,5.73,1.74,-0.5,26.9
2015-09-29 01:37:00,0.0,1.92805,0.00080,392.867,0.484,0.6757,0.0049,140.001,45.001,31642.40288,1.94113,396.121,34.580,45.069,45.001,0.00,0.10,-272.74,-272.79,-9,522,-932,21.5,20.2,-2.3,21.7,20.4,-2.0,5.73,1.97,-0.5,27.0
2015-09-29 01:38:00,0.0,1.92681,0.00110,392.392,0.784,0.6692,0.0047,139.999,45.001,31644.67417,1.93984,395.653,34.657,45.069,45.001,0.00,0.10,-272.74,-272.80,-8,522,-932,21.5,20.0,-2.4,21.7,20.3,-2.1,5.73,2.05,-0.5,27.0
2015-09-29 01:39:00,0.0,1.92716,0.00097,391.645,1.002,0.6480,0.0055,140.001,45.001,31648.43609,1.93962,394.711,34.703,45.069,45.001,0.00,0.10,-272.74,-272.81,-8,522,-932,21.5,19.4,-2.8,21.6,19.8,-2.5,5.73,1.73,-0.5,27.0
2015-09-29 01:40:00,0.0,1.92666,0.00128,392.268,1.109,0.6684,0.0089,139.999,45.001,31649.25332,1.93972,395.537,34.718,45.069,45.001,0.00,0.10,-272.74,-272.80,-8,522,-932,21.5,19.9,-2.5,21.6,20.1,-2.2,5.73,1.94,-0.5,27.0
2015-09-29 01:41:00,0.0,1.92715,0.00137,392.594,0.876,0.6628,0.0118,140.001,45.001,31649.92973,1.93994,395.767,34.689,45.068,45.000,0.00,0.10,-272.74,-272.80,-9,523,-932,21.5,19.8,-2.5,21.6,20.0,-2.3,5.73,2.08,-0.5,27.0
2015-09-29 01:42:00,0.0,1.92780,0.00125,393.034,0.854,0.6699,0.0105,140.001,45.000,31651.00429,1.94071,396.242,34.619,45.068,44.999,0.00,0.10,-272.74,-272.81,-9,523,-932,21.5,20.1,-2.3,21.7,20.2,-2.1,5.73,1.86,-0.5,27.0
2015-09-29 01:43:00,0.0,1.92682,0.00126,392.674,0.942,0.6825,0.0080,140.001,44.999,31651.00208,1.94014,396.010,34.543,45.067,44.999,0.00,0.10,-272.74,-272.80,-8,523,-931,21.6,20.3,-2.1,21.7,20.6,-1.9,5.73,1.76,-0.5,27.0
2015-09-29 01:44:00,0.0,1.92564,0.00060,391.109,0.136,0.6499,0.0042,139.999,44.999,31646.10457,1.93818,394.229,34.465,45.067,44.999,0.00,0.10,-272.74,-272.80,-8,523,-931,21.6,19.4,-2.8,21.7,19.9,-2.3,5.73,1.92,-0.5,27.0
2015-09-29 01:45:00,0.0,1.92758,0.00128,392.645,0.943,0.6598,0.0128,139.998,44.998,31641.85915,1.94037,395.812,34.396,45.067,44.999,0.00,0.10,-272.75,-272.81,-8,523,-931,21.6,19.7,-2.5,21.7,19.8,-2.4,5.73,2.07,-0.5,27.0